User: anonymous   Login
Location: Cincinnati Observatory Center
(39.1389°N, 84.4225°W)
Time: 10:52:09
(UTC-04:00)
Language:

COSMOS 2428 - Orbit

View from above orbital plane
View from above orbital plane
View from above satellite
View from above satellite

Ground track
Ground track

The orbit data is extracted from the following two-line orbital elements,

1 31792U 07029A   17115.86075973 +.00000055 +00000-0 +55776-4 0  9994
2 31792 070.9124 161.9743 0007843 331.7848 028.2846 14.12256544506593
Epoch (UTC): 25 April 2017 20:39:29
Eccentricity: 0.0007843
inclination: 70.9124°
perigee height: 846 km
apogee height: 857 km
right ascension of ascending node: 161.9743°
argument of perigee: 331.7848°
revolutions per day: 14.12256544
mean anomaly at epoch: 28.2846°
orbit number at epoch: 50659

The dashed part of the orbit path shows where the satellite is in the earth's shadow,  

DLR